Location: Newark
(46.7636°N, 1.8358°W)
Time: 14:43:23
(UTC+00:00)

ISS - Visible Passes

Search period start: 19 September 2019 00:00
Search period end: 29 September 2019 00:00
Orbit: 411 x 421 km, 51.6° (Epoch: 19 September)

Date Brightness Start Highest point End Pass type
(mag) Time Alt. Az. Time Alt. Az. Time Alt. Az.
19 Sep -2.1 20:10:38 10° SW 20:12:14 25° SSW 20:12:14 25° SSW visible
20 Sep -3.0 19:22:30 10° SSW 19:25:31 32° SE 19:26:22 27° ESE visible
20 Sep -0.7 20:58:53 10° W 20:59:18 13° W 20:59:18 13° W visible
21 Sep -2.3 18:34:39 10° S 18:37:12 21° SE 18:39:46 10° E visible
21 Sep -3.4 20:10:20 10° WSW 20:13:12 62° W 20:13:12 62° W visible
22 Sep -3.9 19:21:51 10° SW 19:25:10 75° SSE 19:26:56 25° ENE visible
22 Sep -0.8 20:58:58 10° W 20:59:51 16° WNW 20:59:51 16° WNW visible
23 Sep -3.4 18:33:32 10° SW 18:36:45 48° SE 18:39:57 10° ENE visible
23 Sep -2.8 20:10:19 10° W 20:13:26 44° NNW 20:13:26 44° NNW visible
24 Sep -3.3 19:21:40 10° W 19:24:57 57° NNW 19:26:56 21° NE visible
24 Sep -0.7 20:59:01 10° WNW 20:59:49 15° WNW 20:59:49 15° WNW visible
25 Sep -3.7 18:33:04 10° WSW 18:36:25 79° NNW 18:39:45 10° ENE visible
25 Sep -2.4 20:10:22 10° WNW 20:13:13 34° NNW 20:13:13 34° NNW visible
26 Sep -2.6 19:21:40 10° W 19:24:48 38° N 19:26:34 21° NE visible
26 Sep -0.5 20:58:53 10° WNW 20:59:28 14° WNW 20:59:28 14° WNW visible
27 Sep -2.9 18:32:57 10° W 18:36:11 46° NNW 18:39:24 10° ENE visible
27 Sep -2.2 20:10:17 10° WNW 20:12:46 31° NNW 20:12:46 31° NNW visible
28 Sep -2.5 19:21:38 10° WNW 19:24:42 33° N 19:26:02 24° NE visible
28 Sep -0.4 20:58:33 10° WNW 20:58:55 12° WNW 20:58:55 12° WNW visible
